Regional Weather Roundup
Issued by NWS

Home | Current Version | Previous Version | Graphics & Text | Print | Product List | Glossary On
Versions: 1 2 3 4 5 6 7 8 9 10 11 12 13 14 15 16 17 18 19 20 21 22 23 24 25 26 27 28 29 30 31 32 33 34 35 36 37 38 39 40 41 42 43 44 45 46 47 48 49 50
000
ASUS43 KDMX 190006
RWRIA

WEATHER ROUNDUP FOR IOWA
NATIONAL WEATHER SERVICE DES MOINES IA
700 PM CDT MON SEP 18 2017

NOTE: "FAIR" INDICATES FEW OR NO CLOUDS BELOW 12,000 FEET WITH NO
SIGNIFICANT WEATHER AND/OR OBSTRUCTIONS TO VISIBILITY.

* - THESE STATIONS ARE NOT NWS STATIONS...THUS NOT UNDER NWS
QUALITY CONTROL.  THEY ALSO DO NOT REPORT WEATHER SUCH
AS PRECIPITATION OR FOG.

IAZ001>003-012>014-020>022-031>034-043>046-190100-
   NORTHWEST IOWA

CITY           SKY/WX    TMP DP  RH WIND       PRES   REMARKS
CARROLL *      CLOUDY    70  66  88 S5        29.90S
CHEROKEE *     CLOUDY    71  68  90 S7        29.88S
DENISON *      CLOUDY    70  66  88 S5        29.91S
LE MARS *      PTCLDY    72  66  83 S8        29.87R
ORANGE CITY *  CLEAR     72  68  88 S6        29.88S
SHELDON *      CLEAR     68  64  88 S5        29.87S
SIOUX CITY     CLOUDY    71  68  90 S7        29.87R
6HR MIN TEMP:  69; 6HR MAX TEMP:  74;

SPENCER        MOCLDY    69  66  90 SE8       29.89F
6HR MIN TEMP:  61; 6HR MAX TEMP:  71; 6HR PCP:  0.07;

STORM LAKE *   CLOUDY    70  64  83 S7        29.90S
$$

IAZ055>058-069>071-079>083-090>094-190100-
   SOUTHWEST IOWA

CITY           SKY/WX    TMP DP  RH WIND       PRES   REMARKS
ATLANTIC *     CLEAR     72  64  78 S6        29.90S
AUDUBON *      MOCLDY    70  64  83 CALM      29.92S
CLARINDA *     CLOUDY    72  68  88 SE5       29.93R
COUNCIL BLFS * PTCLDY    72  70  94 S8        29.89R
CRESTON *      CLEAR     70  12  11 SE7       29.94S
HARLAN  *      MOCLDY    70  66  88 S6        29.93S
LAMONI         CLEAR     70  67  90 S6        29.93F
6HR MIN TEMP:  67; 6HR MAX TEMP:  72; 6HR PCP:  0.94;

RED OAK *      CLOUDY    70  66  88 E6        29.90S
SHENANDOAH *   MOCLDY    72  68  88 SE5       29.90S
$$

IAZ047>049-059>061-072>074-084-190100-
   CENTRAL IOWA

CITY           SKY/WX    TMP DP  RH WIND       PRES   REMARKS
AMES           PTCLDY    68  66  93 SE6       29.92R
6HR MIN TEMP:  64; 6HR MAX TEMP:  71; 6HR PCP:  0.01;

ANKENY *       PTCLDY    68  64  88 S7        29.94R
BOONE *        MOCLDY    70  64  83 S3        29.92R
CHARITON *     CLOUDY    68  66  94 CALM      29.94S
DES MOINES     PTCLDY    70  66  87 SE7       29.92S
6HR MIN TEMP:  70; 6HR MAX TEMP:  73; 6HR PCP: TRACE;

GRINNELL*      PTCLDY    67  65  93 E3        29.95S
KNOXVILLE *    PTCLDY    68  66  94 SE7       29.93F
MARSHALLTOWN   CLOUDY    67  65  93 E8        29.93S
6HR MIN TEMP:  66; 6HR MAX TEMP:  69; 6HR PCP:  0.08;

NEWTON *       CLOUDY    68  64  88 SE3       29.94S
PELLA *        PTCLDY    69  67  93 SE5       29.95R
PERRY *          N/A     71  67  87 S3        29.92R
$$

IAZ004>006-015-016-023>025-035-036-190100-
   NORTH CENTRAL IOWA

CITY           SKY/WX    TMP DP  RH WIND       PRES   REMARKS
ALGONA *       CLOUDY    64  64 100 SE8       29.92S
CLARION *      CLOUDY    66  66 100 SE8       29.93S
ESTHERVILLE    CLOUDY    62  62 100 SE7       29.91S FOG
6HR MIN TEMP:  58; 6HR MAX TEMP:  63; 6HR PCP:  0.63;

FORT DODGE *   CLOUDY    67  64  90 SE3       29.93R
MASON CITY     CLOUDY    63  60  90 SE7       29.95F
6HR MIN TEMP:  57; 6HR MAX TEMP:  64; 6HR PCP:  0.03;

FOREST CITY *  RAIN      63  63 100 SE5       29.94S
WEBSTER CITY * CLOUDY    68  64  88 SE3       29.91R
IOWA FALLS *   MOCLDY    67  63  86 E6        29.95R
$$

IAZ007>011-017>019-026>030-037>042-050>054-066-190100-
   NORTHEAST IOWA

CITY           SKY/WX    TMP DP  RH WIND       PRES   REMARKS
CEDAR RAPIDS   LGT RAIN  71  65  81 CALM      29.94F
6HR MIN TEMP:  70; 6HR MAX TEMP:  77; 6HR PCP:  0.02;

CHARLES CITY * CLOUDY    64  63  94 E6        29.96S
CLINTON *      MOCLDY    74  64  71 SE8       29.96F
DECORAH *      PTCLDY    61  59  94 NE5       29.97F
DUBUQUE        CLOUDY    70  59  68 E3        29.98S
6HR MIN TEMP:  70; 6HR MAX TEMP:  75;

MONTICELLO *   CLOUDY    72  63  73 CALM      29.96S
OELWEIN *      CLOUDY    66  63  88 E6        29.97S
WATERLOO       CLOUDY    65  60  84 E5        29.94F
6HR MIN TEMP:  65; 6HR MAX TEMP:  73; 6HR PCP:  0.02;

$$

IAZ064-065-067-068-078-190100-
   EAST CENTRAL IOWA

CITY           SKY/WX    TMP DP  RH WIND       PRES   REMARKS
DAVENPORT      PTCLDY    74  63  68 S3        29.96F
6HR MIN TEMP:  74; 6HR MAX TEMP:  80;

IOWA CITY      LGT RAIN  71  66  84 SW6       29.96S
6HR MIN TEMP:  71; 6HR MAX TEMP:  80; 6HR PCP:  0.04;

MT. PLEASANT * CLOUDY    70  66  85 W5        29.95S
MUSCATINE *    LGT RAIN  72  68  88 CALM      29.95S
QUAD CITIES    CLOUDY    76  63  64 SE3       29.93F
6HR MIN TEMP:  76; 6HR MAX TEMP:  82;

$$

IAZ062-063-075>077-085>089-095>099-190100-
   SOUTHEAST IOWA

CITY           SKY/WX    TMP DP  RH WIND       PRES   REMARKS
BURLINGTON     LGT RAIN  74  68  81 CALM      29.94S
6HR MIN TEMP:  74; 6HR MAX TEMP:  80; 6HR PCP: TRACE;

FAIRFIELD *    CLOUDY    70  68  94 SE6       29.94F
FORT MADISON * CLOUDY    73  70  88 CALM      29.96R
KEOKUK *       CLOUDY    73  70  88 CALM      29.94S
OSKALOOSA *      N/A     69  67  93 N3        29.95R
OTTUMWA        CLOUDY    71  68  90 SE9       29.91F
6HR MIN TEMP:  71; 6HR MAX TEMP:  78; 6HR PCP:  0.10;

WASHINGTON *   MOCLDY    68  68 100 CALM      29.96S
$$

ABBREVIATIONS USED IN REMARKS
   TC - TEMPERATURES IN CELSIUS
  WCI - WIND CHILL INDEX
   HX - HEAT INDEX
  VSB - VISIBILITY
$$





USA.gov is the U.S. government's official web portal to all federal, state and local government web resources and services.